timestamp,wind_dir_avg,wind_spd_max_dir,wind_spd_avg,wind_spd_gust,battery_voltage,lat,long
2018-04-24 00:00:00+00:00,286.0,286.0,3.46,4.18,,47.59359,-54.27349
2018-04-24 00:10:00+00:00,289.0,294.0,5.01,5.68,,47.59359,-54.27349
2018-04-24 00:20:00+00:00,302.0,302.0,4.06,4.25,,47.59359,-54.27349
2018-04-24 00:30:00+00:00,279.0,280.0,3.08,3.42,,47.59359,-54.27349
2018-04-24 00:40:00+00:00,287.0,287.0,3.27,3.52,,47.59359,-54.27349
2018-04-24 00:50:00+00:00,280.0,282.0,3.54,3.75,,47.59359,-54.27349
2018-04-24 01:00:00+00:00,285.0,284.0,3.76,4.19,,47.59359,-54.27349
2018-04-24 01:10:00+00:00,273.0,273.0,2.85,3.17,,47.59359,-54.27349
2018-04-24 01:20:00+00:00,274.0,276.0,3.14,3.26,,47.59359,-54.27349
2018-04-24 01:30:00+00:00,277.0,277.0,3.35,3.51,,47.59359,-54.27349
2018-04-24 01:40:00+00:00,279.0,281.0,3.85,4.39,,47.59359,-54.27349
2018-04-24 01:50:00+00:00,288.0,289.0,3.91,4.31,,47.59359,-54.27349
2018-04-24 02:00:00+00:00,291.0,289.0,4.42,5.18,,47.59359,-54.27349
2018-04-24 02:10:00+00:00,290.0,296.0,6.05,7.15,,47.59359,-54.27349
2018-04-24 02:20:00+00:00,283.0,287.0,5.8,6.66,,47.59359,-54.27349
2018-04-24 02:30:00+00:00,284.0,284.0,6.97,8.41,,47.59359,-54.27349
2018-04-24 02:40:00+00:00,287.0,287.0,6.73,7.86,,47.59359,-54.27349
2018-04-24 02:50:00+00:00,293.0,292.0,6.45,7.03,,47.59359,-54.27349
2018-04-24 03:00:00+00:00,292.0,292.0,6.63,7.03,,47.59359,-54.27349
2018-04-24 03:10:00+00:00,285.0,276.0,5.25,6.21,,47.59359,-54.27349
2018-04-24 03:20:00+00:00,284.0,288.0,4.45,4.89,,47.59359,-54.27349
2018-04-24 03:30:00+00:00,299.0,296.0,3.49,3.75,,47.59359,-54.27349
2018-04-24 03:40:00+00:00,302.0,303.0,3.27,3.73,,47.59359,-54.27349
2018-04-24 03:50:00+00:00,315.0,314.0,2.09,3.14,,47.59359,-54.27349
2018-04-24 04:00:00+00:00,302.0,305.0,1.64,2.1,,47.59359,-54.27349
2018-04-24 04:10:00+00:00,273.0,275.0,2.95,3.9,,47.59359,-54.27349
2018-04-24 04:20:00+00:00,281.0,287.0,3.95,4.56,,47.59359,-54.27349
2018-04-24 04:30:00+00:00,269.0,267.0,5.0,5.61,,47.59359,-54.27349
2018-04-24 04:40:00+00:00,285.0,279.0,5.74,7.08,,47.59359,-54.27349
2018-04-24 04:50:00+00:00,289.0,291.0,5.16,6.13,,47.59359,-54.27349
2018-04-24 05:00:00+00:00,275.0,285.0,4.76,5.7,,47.59359,-54.27349
2018-04-24 05:10:00+00:00,268.0,268.0,3.59,4.21,,47.59359,-54.27349
2018-04-24 05:20:00+00:00,262.0,261.0,3.93,4.85,,47.59359,-54.27349
2018-04-24 05:30:00+00:00,279.0,281.0,4.25,5.91,,47.59359,-54.27349
2018-04-24 05:40:00+00:00,240.0,250.0,3.52,4.37,,47.59359,-54.27349
2018-04-24 05:50:00+00:00,267.0,269.0,4.35,5.87,,47.59359,-54.27349
2018-04-24 06:00:00+00:00,265.0,269.0,5.36,6.47,,47.59359,-54.27349
2018-04-24 06:10:00+00:00,272.0,272.0,5.54,6.07,,47.59359,-54.27349
2018-04-24 06:20:00+00:00,265.0,262.0,6.47,7.33,,47.59359,-54.27349
2018-04-24 06:30:00+00:00,260.0,259.0,4.97,5.37,,47.59359,-54.27349
2018-04-24 06:40:00+00:00,264.0,263.0,4.25,4.71,,47.59359,-54.27349
2018-04-24 06:50:00+00:00,243.0,232.0,3.77,4.33,,47.59359,-54.27349
2018-04-24 07:00:00+00:00,235.0,253.0,3.81,4.5,,47.59359,-54.27349
2018-04-24 07:10:00+00:00,221.0,223.0,4.65,5.11,,47.59359,-54.27349
2018-04-24 07:20:00+00:00,231.0,230.0,4.96,5.51,,47.59359,-54.27349
2018-04-24 07:30:00+00:00,232.0,236.0,5.04,5.49,,47.59359,-54.27349
2018-04-24 07:40:00+00:00,233.0,231.0,4.85,5.29,,47.59359,-54.27349
2018-04-24 07:50:00+00:00,238.0,235.0,5.75,6.87,,47.59359,-54.27349
2018-04-24 08:00:00+00:00,240.0,242.0,5.78,7.14,,47.59359,-54.27349
2018-04-24 08:10:00+00:00,249.0,250.0,4.77,5.5,,47.59359,-54.27349
2018-04-24 08:20:00+00:00,256.0,262.0,4.39,5.14,,47.59359,-54.27349
2018-04-24 08:30:00+00:00,269.0,266.0,3.91,4.6,,47.59359,-54.27349
2018-04-24 08:40:00+00:00,277.0,279.0,2.47,3.35,,47.59359,-54.27349
2018-04-24 08:50:00+00:00,273.0,266.0,1.07,1.6,,47.59359,-54.27349
2018-04-24 09:00:00+00:00,83.0,72.0,1.26,1.54,,47.59359,-54.27349
2018-04-24 09:10:00+00:00,50.0,40.0,1.81,3.0,,47.59359,-54.27349
2018-04-24 09:20:00+00:00,260.0,267.0,1.18,1.72,,47.59359,-54.27349
2018-04-24 09:30:00+00:00,298.0,299.0,4.0,4.57,,47.59359,-54.27349
2018-04-24 09:40:00+00:00,287.0,285.0,3.27,3.76,,47.59359,-54.27349
2018-04-24 09:50:00+00:00,286.0,290.0,3.94,4.3,,47.59359,-54.27349
2018-04-24 10:00:00+00:00,279.0,268.0,4.06,4.9,,47.59359,-54.27349
2018-04-24 10:10:00+00:00,278.0,275.0,4.7,6.03,,47.59359,-54.27349
2018-04-24 10:20:00+00:00,267.0,268.0,4.35,5.26,,47.59359,-54.27349
2018-04-24 10:30:00+00:00,256.0,258.0,3.95,5.27,,47.59359,-54.27349
2018-04-24 10:40:00+00:00,265.0,279.0,2.81,4.13,,47.59359,-54.27349
2018-04-24 10:50:00+00:00,226.0,234.0,3.17,3.88,,47.59359,-54.27349
2018-04-24 11:00:00+00:00,225.0,223.0,4.89,5.43,,47.59359,-54.27349
2018-04-24 11:10:00+00:00,220.0,222.0,5.11,6.01,,47.59359,-54.27349
2018-04-24 11:20:00+00:00,217.0,218.0,6.06,6.42,,47.59359,-54.27349
2018-04-24 11:30:00+00:00,220.0,231.0,4.0,4.83,,47.59359,-54.27349
2018-04-24 11:40:00+00:00,216.0,210.0,4.16,6.33,,47.59359,-54.27349
2018-04-24 11:50:00+00:00,173.0,188.0,3.17,4.58,,47.59359,-54.27349
2018-04-24 12:00:00+00:00,199.0,200.0,3.52,3.87,,47.59359,-54.27349
2018-04-24 12:10:00+00:00,179.0,182.0,4.08,4.48,,47.59359,-54.27349
2018-04-24 12:20:00+00:00,201.0,198.0,4.75,5.39,,47.59359,-54.27349
2018-04-24 12:30:00+00:00,186.0,176.0,2.55,3.39,,47.59359,-54.27349
2018-04-24 12:40:00+00:00,188.0,189.0,3.97,4.49,,47.59359,-54.27349
2018-04-24 12:50:00+00:00,194.0,207.0,3.66,4.52,,47.59359,-54.27349
2018-04-24 13:00:00+00:00,188.0,178.0,2.78,3.25,,47.59359,-54.27349
2018-04-24 13:10:00+00:00,253.0,262.0,3.52,4.67,,47.59359,-54.27349
2018-04-24 13:20:00+00:00,185.0,187.0,5.45,7.56,,47.59359,-54.27349
2018-04-24 13:30:00+00:00,188.0,196.0,5.63,6.41,,47.59359,-54.27349
2018-04-24 13:40:00+00:00,197.0,199.0,4.57,5.2,,47.59359,-54.27349
2018-04-24 13:50:00+00:00,263.0,267.0,5.58,6.53,,47.59359,-54.27349
2018-04-24 14:00:00+00:00,217.0,221.0,6.43,7.36,,47.59359,-54.27349
2018-04-24 14:10:00+00:00,218.0,228.0,5.71,6.94,,47.59359,-54.27349
2018-04-24 14:20:00+00:00,204.0,206.0,5.78,6.45,,47.59359,-54.27349
2018-04-24 14:30:00+00:00,246.0,259.0,5.63,7.63,,47.59359,-54.27349
2018-04-24 14:40:00+00:00,244.0,241.0,8.26,9.75,,47.59359,-54.27349
2018-04-24 14:50:00+00:00,229.0,229.0,8.43,9.61,,47.59359,-54.27349
2018-04-24 15:00:00+00:00,225.0,225.0,8.76,12.74,,47.59359,-54.27349
2018-04-24 15:10:00+00:00,222.0,227.0,7.38,8.36,,47.59359,-54.27349
2018-04-24 15:20:00+00:00,222.0,220.0,8.51,9.72,,47.59359,-54.27349
2018-04-24 15:30:00+00:00,221.0,225.0,8.06,9.53,,47.59359,-54.27349
2018-04-24 15:40:00+00:00,220.0,224.0,8.85,10.02,,47.59359,-54.27349
2018-04-24 15:50:00+00:00,221.0,220.0,9.82,10.79,,47.59359,-54.27349
2018-04-24 16:00:00+00:00,216.0,216.0,8.54,9.53,,47.59359,-54.27349
2018-04-24 16:10:00+00:00,220.0,222.0,8.98,10.33,,47.59359,-54.27349
2018-04-24 16:20:00+00:00,216.0,218.0,9.18,10.3,,47.59359,-54.27349
2018-04-24 16:30:00+00:00,218.0,218.0,8.95,10.22,,47.59359,-54.27349
2018-04-24 16:40:00+00:00,221.0,224.0,9.91,11.02,,47.59359,-54.27349
2018-04-24 16:50:00+00:00,223.0,227.0,10.79,12.05,,47.59359,-54.27349
2018-04-24 17:00:00+00:00,222.0,224.0,10.9,12.4,,47.59359,-54.27349
2018-04-24 17:10:00+00:00,221.0,225.0,10.77,12.56,,47.59359,-54.27349
2018-04-24 17:20:00+00:00,223.0,224.0,11.62,13.19,,47.59359,-54.27349
2018-04-24 17:30:00+00:00,225.0,220.0,11.36,12.85,,47.59359,-54.27349
2018-04-24 17:40:00+00:00,227.0,226.0,10.3,11.59,,47.59359,-54.27349
2018-04-24 17:50:00+00:00,226.0,223.0,11.13,12.19,,47.59359,-54.27349
2018-04-24 18:00:00+00:00,223.0,226.0,11.51,12.7,,47.59359,-54.27349
2018-04-24 18:10:00+00:00,223.0,227.0,11.92,13.49,,47.59359,-54.27349
2018-04-24 18:20:00+00:00,216.0,216.0,10.71,12.28,,47.59359,-54.27349
2018-04-24 18:30:00+00:00,219.0,214.0,11.01,12.17,,47.59359,-54.27349
2018-04-24 18:40:00+00:00,219.0,223.0,10.16,11.83,,47.59359,-54.27349
2018-04-24 18:50:00+00:00,217.0,218.0,9.74,11.04,,47.59359,-54.27349
2018-04-24 19:00:00+00:00,216.0,216.0,9.79,11.27,,47.59359,-54.27349
2018-04-24 19:10:00+00:00,219.0,221.0,9.55,10.47,,47.59359,-54.27349
2018-04-24 19:20:00+00:00,216.0,217.0,10.51,11.6,,47.59359,-54.27349
2018-04-24 19:30:00+00:00,216.0,219.0,9.48,11.52,,47.59359,-54.27349
2018-04-24 19:40:00+00:00,221.0,222.0,9.56,10.84,,47.59359,-54.27349
2018-04-24 19:50:00+00:00,223.0,220.0,10.17,11.13,,47.59359,-54.27349
2018-04-24 20:00:00+00:00,223.0,221.0,10.46,11.56,,47.59359,-54.27349
2018-04-24 20:10:00+00:00,223.0,226.0,10.9,11.74,,47.59359,-54.27349
2018-04-24 20:20:00+00:00,219.0,224.0,10.27,11.48,,47.59359,-54.27349
2018-04-24 20:30:00+00:00,218.0,216.0,10.49,12.0,,47.59359,-54.27349
2018-04-24 20:40:00+00:00,220.0,222.0,11.17,12.8,,47.59359,-54.27349
2018-04-24 20:50:00+00:00,219.0,221.0,12.02,13.38,,47.59359,-54.27349
2018-04-24 21:00:00+00:00,222.0,220.0,11.7,12.77,,47.59359,-54.27349
2018-04-24 21:10:00+00:00,222.0,226.0,10.76,13.4,,47.59359,-54.27349
2018-04-24 21:20:00+00:00,222.0,221.0,10.39,12.23,,47.59359,-54.27349
2018-04-24 21:30:00+00:00,224.0,229.0,10.89,12.05,,47.59359,-54.27349
2018-04-24 21:40:00+00:00,222.0,222.0,10.5,11.9,,47.59359,-54.27349
2018-04-24 21:50:00+00:00,225.0,225.0,10.39,11.22,,47.59359,-54.27349
2018-04-24 22:00:00+00:00,225.0,224.0,9.5,10.55,,47.59359,-54.27349
2018-04-24 22:10:00+00:00,223.0,223.0,9.16,10.16,,47.59359,-54.27349
2018-04-24 22:20:00+00:00,227.0,227.0,8.61,9.25,,47.59359,-54.27349
2018-04-24 22:30:00+00:00,228.0,229.0,9.34,10.29,,47.59359,-54.27349
2018-04-24 22:40:00+00:00,230.0,232.0,10.43,11.63,,47.59359,-54.27349
2018-04-24 22:50:00+00:00,231.0,229.0,9.32,10.82,,47.59359,-54.27349
2018-04-24 23:00:00+00:00,230.0,232.0,9.15,10.09,,47.59359,-54.27349
2018-04-24 23:10:00+00:00,229.0,228.0,9.07,10.27,,47.59359,-54.27349
2018-04-24 23:20:00+00:00,226.0,223.0,8.87,9.62,,47.59359,-54.27349
2018-04-24 23:30:00+00:00,228.0,226.0,8.21,9.35,,47.59359,-54.27349
2018-04-24 23:40:00+00:00,221.0,225.0,8.25,9.99,,47.59359,-54.27349
2018-04-24 23:50:00+00:00,218.0,220.0,8.08,9.06,,47.59359,-54.27349
